Location: Recife
(8.0585°S, 34.8848°W)
Time: 10:38:24
(UTC-03:00)

Explorer 7 - Pass Details

Date: 15 April 2026
Orbit: 427 x 536 km, 50.2° (Epoch: 14 May)

Event Time Altitude Azimuth Distance (km) Brightness Sun altitude
Rises 13:39:36 0° 253° (WSW) 2,585 10.7 50.8°
Reaches altitude 10° 13:43:17 10° 289° (WNW) 1,725 10.3 49.9°
Maximum altitude 13:44:26 11° 307° (NW) 1,663 10.2 49.7°
Drops below altitude 10° 13:45:36 10° 324° (NW) 1,737 10.1 49.4°
Sets 13:49:22 0° 360° (N) 2,641 10.5 48.6°
